,,,PA_Meas_PMT16A,,PR_Meas_QMR101_102,,RH_Meas_QMH101,,SR_Meas_QMS101,,TA_Meas_QMH101,,GenWind,,GenWind,
date,time,status,PA,status,PR,status,RH,status,SR,status,TA,status,DirAvg,status,SpdAvg,
2011-04-30, 00:00:04,VALID,1003.52,VALID,0,INVALID,163.708,VALID,0,VALID,24.6185,VALID,349,VALID,0.151953,
2011-04-30, 00:01:04,VALID,1003.51,VALID,0,INVALID,163.693,VALID,0,VALID,24.5777,VALID,349,VALID,0,
2011-04-30, 00:02:04,VALID,1003.53,VALID,0,INVALID,163.723,VALID,0,VALID,24.599,VALID,349,VALID,0,
2011-04-30, 00:03:04,VALID,1003.5,VALID,0,INVALID,163.701,VALID,0,VALID,24.5796,VALID,349,VALID,0,
2011-04-30, 00:04:04,VALID,1003.49,VALID,0,INVALID,163.716,VALID,0,VALID,24.5582,VALID,349,VALID,0,
2011-04-30, 00:05:04,VALID,1003.5,VALID,0,INVALID,163.701,VALID,0,VALID,24.5388,VALID,349,VALID,0.286719,
2011-04-30, 00:06:04,VALID,1003.51,VALID,0,INVALID,163.716,VALID,0,VALID,24.5601,VALID,349,VALID,0.0183594,
2011-04-30, 00:07:04,VALID,1003.46,VALID,0,INVALID,163.701,VALID,0,VALID,24.5601,VALID,349,VALID,0.11875,
2011-04-30, 00:08:04,VALID,1003.47,VALID,0,INVALID,163.716,VALID,0,VALID,24.5796,VALID,349,VALID,0.0179687,
2011-04-30, 00:09:04,VALID,1003.46,VALID,0,INVALID,163.708,VALID,0,VALID,24.5601,VALID,349,VALID,0.226563,
2011-04-30, 00:10:04,VALID,1003.46,VALID,0,INVALID,163.67,VALID,0,VALID,24.5601,VALID,349,VALID,0.191406,
2011-04-30, 00:11:04,VALID,1003.43,VALID,0,INVALID,163.708,VALID,0,VALID,24.5582,VALID,349,VALID,0,
2011-04-30, 00:12:04,VALID,1003.42,VALID,0,INVALID,163.708,VALID,0,VALID,24.5601,VALID,349,VALID,0.172266,
2011-04-30, 00:13:04,VALID,1003.42,VALID,0,INVALID,163.723,VALID,0,VALID,24.5796,VALID,349,VALID,0.175781,
2011-04-30, 00:14:04,VALID,1003.42,VALID,0,INVALID,163.716,VALID,0,VALID,24.5796,VALID,349,VALID,0.137891,
2011-04-30, 00:15:04,VALID,1003.41,VALID,0,INVALID,163.708,VALID,0,VALID,24.5796,VALID,349,VALID,0.285547,
2011-04-30, 00:16:04,VALID,1003.39,VALID,0,INVALID,163.708,VALID,0,VALID,24.5601,VALID,349,VALID,0.185937,
2011-04-30, 00:17:04,VALID,1003.37,VALID,0,INVALID,163.693,VALID,0,VALID,24.5796,VALID,349,VALID,0,
2011-04-30, 00:18:04,VALID,1003.37,VALID,0,INVALID,163.723,VALID,0,VALID,24.5777,VALID,349,VALID,0,
2011-04-30, 00:19:04,VALID,1003.34,VALID,0,INVALID,163.708,VALID,0,VALID,24.5796,VALID,349,VALID,0.451172,
2011-04-30, 00:20:04,VALID,1003.31,VALID,0,INVALID,163.678,VALID,0,VALID,24.5582,VALID,349,VALID,0.423828,
2011-04-30, 00:21:04,VALID,1003.34,VALID,0,INVALID,163.685,VALID,0,VALID,24.5406,VALID,349,VALID,0.563281,
2011-04-30, 00:22:04,VALID,1003.29,VALID,0,INVALID,163.716,VALID,0,VALID,24.5601,VALID,349,VALID,0.461719,
2011-04-30, 00:23:04,VALID,1003.31,VALID,0,INVALID,163.67,VALID,0,VALID,24.5406,VALID,349,VALID,0.300781,
2011-04-30, 00:24:04,VALID,1003.31,VALID,0,INVALID,163.685,VALID,0,VALID,24.5406,VALID,349,VALID,0.154297,
2011-04-30, 00:25:04,VALID,1003.28,VALID,0,INVALID,163.67,VALID,0,VALID,24.5406,VALID,349,VALID,0,
2011-04-30, 00:26:04,VALID,1003.28,VALID,0,INVALID,163.716,VALID,0,VALID,24.5406,VALID,349,VALID,0,
2011-04-30, 00:27:04,VALID,1003.27,VALID,0,INVALID,163.739,VALID,0,VALID,24.5406,VALID,349,VALID,0,
2011-04-30, 00:28:04,VALID,1003.27,VALID,0,INVALID,163.708,VALID,0,VALID,24.5406,VALID,349,VALID,0,
2011-04-30, 00:29:04,VALID,1003.25,VALID,0,INVALID,163.716,VALID,0,VALID,24.5406,VALID,349,VALID,0,
2011-04-30, 00:30:04,VALID,1003.25,VALID,0,INVALID,163.708,VALID,0,VALID,24.5406,VALID,349,VALID,0,
2011-04-30, 00:31:04,VALID,1003.25,VALID,0,INVALID,163.701,VALID,0,VALID,24.5388,VALID,349,VALID,0.446094,
2011-04-30, 00:32:04,VALID,1003.23,VALID,0,INVALID,163.685,VALID,0,VALID,24.5406,VALID,349,VALID,0.399609,
2011-04-30, 00:33:04,VALID,1003.24,VALID,0,INVALID,163.693,VALID,0,VALID,24.5601,VALID,349,VALID,0.336328,
2011-04-30, 00:34:04,VALID,1003.23,VALID,0,INVALID,163.716,VALID,0,VALID,24.5406,VALID,349,VALID,0.308984,
2011-04-30, 00:35:04,VALID,1003.22,VALID,0,INVALID,163.731,VALID,0,VALID,24.5388,VALID,349,VALID,0.251953,
2011-04-30, 00:36:04,VALID,1003.21,VALID,0,INVALID,163.678,VALID,0,VALID,24.5406,VALID,349,VALID,0.176953,
2011-04-30, 00:37:04,VALID,1003.22,VALID,0,INVALID,163.708,VALID,0,VALID,24.5406,VALID,349,VALID,0.255469,
2011-04-30, 00:38:04,VALID,1003.22,VALID,0,INVALID,163.708,VALID,0,VALID,24.4998,VALID,349,VALID,0.00195313,
2011-04-30, 00:39:04,VALID,1003.19,VALID,0,INVALID,163.693,VALID,0,VALID,24.5212,VALID,349,VALID,0,
2011-04-30, 00:40:04,VALID,1003.17,VALID,0,INVALID,163.739,VALID,0,VALID,24.4998,VALID,349,VALID,0,
2011-04-30, 00:41:04,VALID,1003.17,VALID,0,INVALID,163.708,VALID,0,VALID,24.5212,VALID,349,VALID,0.209375,
2011-04-30, 00:42:04,VALID,1003.15,VALID,0,INVALID,163.716,VALID,0,VALID,24.5406,VALID,349,VALID,0.330859,
2011-04-30, 00:43:04,VALID,1003.14,VALID,0,INVALID,163.716,VALID,0,VALID,24.5406,VALID,349,VALID,0.340234,
2011-04-30, 00:44:04,VALID,1003.08,VALID,0,INVALID,163.708,VALID,0,VALID,24.5406,VALID,349,VALID,0.457031,
2011-04-30, 00:45:04,VALID,1003.08,VALID,0,INVALID,163.723,VALID,0,VALID,24.4998,VALID,349,VALID,0.196484,
2011-04-30, 00:46:04,VALID,1003.07,VALID,0,INVALID,163.693,VALID,0,VALID,24.5212,VALID,349,VALID,0.339063,
2011-04-30, 00:47:04,VALID,1003.04,VALID,0,INVALID,163.701,VALID,0,VALID,24.4998,VALID,349,VALID,0.266406,
2011-04-30, 00:48:04,VALID,1003.04,VALID,0,INVALID,163.685,VALID,0,VALID,24.4998,VALID,349,VALID,0.526172,
2011-04-30, 00:49:04,VALID,1003.03,VALID,0,INVALID,163.731,VALID,0,VALID,24.5193,VALID,349,VALID,0.466406,
2011-04-30, 00:50:04,VALID,1003.02,VALID,0,INVALID,163.678,VALID,0,VALID,24.5406,VALID,349,VALID,0.429688,
2011-04-30, 00:51:04,VALID,1003.03,VALID,0,INVALID,163.723,VALID,0,VALID,24.5406,VALID,349,VALID,0.620313,
2011-04-30, 00:52:04,VALID,1002.99,VALID,0,INVALID,163.708,VALID,0,VALID,24.5193,VALID,353,VALID,0.565234,
2011-04-30, 00:53:04,VALID,1002.98,VALID,0,INVALID,163.716,VALID,0,VALID,24.5193,VALID,349,VALID,0.518359,
2011-04-30, 00:54:04,VALID,1002.97,VALID,0,INVALID,163.716,VALID,0,VALID,24.5388,VALID,14,VALID,0.654297,
2011-04-30, 00:55:04,VALID,1002.95,VALID,0,INVALID,163.685,VALID,0,VALID,24.5388,VALID,354,VALID,0.676953,
2011-04-30, 00:56:04,VALID,1002.94,VALID,0,INVALID,163.731,VALID,0,VALID,24.5582,VALID,355,VALID,0.409375,
2011-04-30, 00:57:04,VALID,1002.94,VALID,0,INVALID,163.708,VALID,0,VALID,24.5582,VALID,355,VALID,0.599609,
2011-04-30, 00:58:04,VALID,1002.9,VALID,0,INVALID,163.723,VALID,0,VALID,24.5796,VALID,355,VALID,0.437891,
2011-04-30, 00:59:04,VALID,1002.92,VALID,0,INVALID,163.701,VALID,0,VALID,24.5796,VALID,355,VALID,0.573828,
2011-04-30, 01:00:04,VALID,1002.9,VALID,0,INVALID,163.723,VALID,0,VALID,24.5796,VALID,355,VALID,0.639453,
2011-04-30, 01:01:04,VALID,1002.86,VALID,0,INVALID,163.701,VALID,0,VALID,24.5582,VALID,355,VALID,0.594922,
2011-04-30, 01:02:04,VALID,1002.85,VALID,0,INVALID,163.701,VALID,0,VALID,24.5388,VALID,351,VALID,0.653125,
2011-04-30, 01:03:04,VALID,1002.83,VALID,0,INVALID,163.708,VALID,0,VALID,24.5582,VALID,353,VALID,0.601953,
2011-04-30, 01:04:04,VALID,1002.84,VALID,0,INVALID,163.67,VALID,0,VALID,24.5972,VALID,352,VALID,0.618359,
2011-04-30, 01:05:04,VALID,1002.83,VALID,0,INVALID,163.708,VALID,0,VALID,24.5972,VALID,352,VALID,0.301172,
2011-04-30, 01:06:04,VALID,1002.81,VALID,0,INVALID,163.701,VALID,0,VALID,24.6361,VALID,352,VALID,0.615234,
2011-04-30, 01:07:04,VALID,1002.78,VALID,0,INVALID,163.701,VALID,0,VALID,24.6361,VALID,352,VALID,0.451172,
2011-04-30, 01:08:04,VALID,1002.78,VALID,0,INVALID,163.708,VALID,0,VALID,24.6574,VALID,352,VALID,0.573047,
2011-04-30, 01:09:04,VALID,1002.76,VALID,0,INVALID,163.701,VALID,0,VALID,24.6166,VALID,352,VALID,0.483203,
2011-04-30, 01:10:04,VALID,1002.73,VALID,0,INVALID,163.701,VALID,0,VALID,24.5972,VALID,352,VALID,0.377344,
2011-04-30, 01:11:04,VALID,1002.72,VALID,0,INVALID,163.701,VALID,0,VALID,24.5777,VALID,352,VALID,0.4125,
2011-04-30, 01:12:04,VALID,1002.68,VALID,0,INVALID,163.716,VALID,0,VALID,24.5582,VALID,352,VALID,0.463672,
2011-04-30, 01:13:04,VALID,1002.67,VALID,0,INVALID,163.685,VALID,0,VALID,24.5582,VALID,352,VALID,0.428516,
2011-04-30, 01:14:04,VALID,1002.65,VALID,0,INVALID,163.685,VALID,0,VALID,24.5601,VALID,351,VALID,0.303516,
2011-04-30, 01:15:04,VALID,1002.64,VALID,0,INVALID,163.723,VALID,0,VALID,24.5193,VALID,351,VALID,0.295703,
2011-04-30, 01:16:04,VALID,1002.59,VALID,0,INVALID,163.716,VALID,0,VALID,24.5212,VALID,351,VALID,0.402734,
2011-04-30, 01:17:04,VALID,1002.58,VALID,0,INVALID,163.716,VALID,0,VALID,24.4804,VALID,351,VALID,0.447266,
2011-04-30, 01:18:04,VALID,1002.59,VALID,0,INVALID,163.678,VALID,0,VALID,24.4822,VALID,351,VALID,0.571875,
2011-04-30, 01:19:04,VALID,1002.58,VALID,0,INVALID,163.708,VALID,0,VALID,24.4628,VALID,351,VALID,0.493359,
2011-04-30, 01:20:04,VALID,1002.59,VALID,0,INVALID,163.701,VALID,0,VALID,24.4609,VALID,354,VALID,0.55625,
2011-04-30, 01:21:04,VALID,1002.58,VALID,0,INVALID,163.693,VALID,0,VALID,24.4822,VALID,354,VALID,0.435156,
2011-04-30, 01:22:04,VALID,1002.56,VALID,0,INVALID,163.708,VALID,0,VALID,24.5017,VALID,342,VALID,0.839063,
2011-04-30, 01:23:04,VALID,1002.57,VALID,0,INVALID,163.678,VALID,0,VALID,24.5212,VALID,344,VALID,0.576172,
2011-04-30, 01:24:04,VALID,1002.56,VALID,0,INVALID,163.693,VALID,0,VALID,24.5388,VALID,355,VALID,0.595312,
2011-04-30, 01:25:04,VALID,1002.55,VALID,0,INVALID,163.716,VALID,0,VALID,24.5601,VALID,343,VALID,0.732031,
2011-04-30, 01:26:04,VALID,1002.53,VALID,0,INVALID,163.723,VALID,0,VALID,24.5796,VALID,339,VALID,0.517187,
2011-04-30, 01:27:04,VALID,1002.55,VALID,0,INVALID,163.701,VALID,0,VALID,24.5796,VALID,339,VALID,0.4625,
2011-04-30, 01:28:04,VALID,1002.55,VALID,0,INVALID,163.716,VALID,0,VALID,24.5388,VALID,340,VALID,0.499219,
2011-04-30, 01:29:04,VALID,1002.55,VALID,0,INVALID,163.693,VALID,0,VALID,24.5601,VALID,340,VALID,0.522656,
2011-04-30, 01:30:04,VALID,1002.56,VALID,0,INVALID,163.678,VALID,0,VALID,24.5406,VALID,344,VALID,0.576563,
2011-04-30, 01:31:04,VALID,1002.56,VALID,0,INVALID,163.716,VALID,0,VALID,24.5406,VALID,345,VALID,0.378516,
2011-04-30, 01:32:04,VALID,1002.57,VALID,0,INVALID,163.723,VALID,0,VALID,24.5406,VALID,345,VALID,0.583984,
2011-04-30, 01:33:04,VALID,1002.55,VALID,0,INVALID,163.723,VALID,0,VALID,24.5193,VALID,346,VALID,0.630078,
2011-04-30, 01:34:04,VALID,1002.58,VALID,0,INVALID,163.708,VALID,0,VALID,24.5406,VALID,347,VALID,0.538281,
2011-04-30, 01:35:04,VALID,1002.57,VALID,0,INVALID,163.685,VALID,0,VALID,24.5406,VALID,347,VALID,0.528516,
2011-04-30, 01:36:04,VALID,1002.55,VALID,0,INVALID,163.708,VALID,0,VALID,24.5406,VALID,347,VALID,0.473828,
2011-04-30, 01:37:04,VALID,1002.58,VALID,0,INVALID,163.716,VALID,0,VALID,24.4998,VALID,347,VALID,0.263281,
2011-04-30, 01:38:04,VALID,1002.56,VALID,0,INVALID,163.685,VALID,0,VALID,24.4804,VALID,347,VALID,0.360156,
2011-04-30, 01:39:04,VALID,1002.57,VALID,0,INVALID,163.716,VALID,0,VALID,24.4822,VALID,347,VALID,0.302734,
2011-04-30, 01:40:04,VALID,1002.56,VALID,0,INVALID,163.716,VALID,0,VALID,24.4414,VALID,347,VALID,0.214062,
2011-04-30, 01:41:04,VALID,1002.52,VALID,0,INVALID,163.708,VALID,0,VALID,24.4433,VALID,347,VALID,0.359375,
2011-04-30, 01:42:04,VALID,1002.54,VALID,0,INVALID,163.723,VALID,0,VALID,24.383,VALID,347,VALID,0.228516,
2011-04-30, 01:43:04,VALID,1002.53,VALID,0,INVALID,163.708,VALID,0,VALID,24.3636,VALID,347,VALID,0,
2011-04-30, 01:44:04,VALID,1002.52,VALID,0,INVALID,163.731,VALID,0,VALID,24.3441,VALID,347,VALID,0,
2011-04-30, 01:45:04,VALID,1002.52,VALID,0,INVALID,163.723,VALID,0,VALID,24.3033,VALID,347,VALID,0,
2011-04-30, 01:46:04,VALID,1002.49,VALID,0,INVALID,163.731,VALID,0,VALID,24.307,VALID,347,VALID,0,
2011-04-30, 01:47:04,VALID,1002.47,VALID,0,INVALID,163.746,VALID,0,VALID,24.2857,VALID,347,VALID,0.586328,
2011-04-30, 01:48:04,VALID,1002.47,VALID,0,INVALID,163.731,VALID,0,VALID,24.2662,VALID,347,VALID,0.456641,
2011-04-30, 01:49:04,VALID,1002.47,VALID,0,INVALID,163.701,VALID,0,VALID,24.2662,VALID,347,VALID,0.553906,
2011-04-30, 01:50:04,VALID,1002.41,VALID,0,INVALID,163.723,VALID,0,VALID,24.2468,VALID,347,VALID,0.617578,
2011-04-30, 01:51:04,VALID,1002.42,VALID,0,INVALID,163.746,VALID,0,VALID,24.2662,VALID,347,VALID,0.745313,
2011-04-30, 01:52:04,VALID,1002.4,VALID,0,INVALID,163.731,VALID,0,VALID,24.2662,VALID,347,VALID,0.443359,
2011-04-30, 01:53:04,VALID,1002.38,VALID,0,INVALID,163.731,VALID,0,VALID,24.2468,VALID,346,VALID,0.606641,
2011-04-30, 01:54:04,VALID,1002.38,VALID,0,INVALID,163.754,VALID,0,VALID,24.2468,VALID,349,VALID,0.739844,
2011-04-30, 01:55:04,VALID,1002.33,VALID,0,INVALID,163.723,VALID,0,VALID,24.2468,VALID,349,VALID,0.55625,
2011-04-30, 01:56:04,VALID,1002.33,VALID,0,INVALID,163.739,VALID,0,VALID,24.2486,VALID,349,VALID,0.571094,
2011-04-30, 01:57:04,VALID,1002.33,VALID,0,INVALID,163.701,VALID,0.100563,VALID,24.2273,VALID,349,VALID,0.502344,
2011-04-30, 01:58:04,VALID,1002.3,VALID,0,INVALID,163.777,VALID,0,VALID,24.2273,VALID,349,VALID,0.512109,
2011-04-30, 01:59:04,VALID,1002.32,VALID,0,INVALID,163.723,VALID,0,VALID,24.206,VALID,342,VALID,0.593359,
2011-04-30, 02:00:04,VALID,1002.3,VALID,0,INVALID,163.723,VALID,0,VALID,24.206,VALID,342,VALID,0.497656,
2011-04-30, 02:01:04,VALID,1002.3,VALID,0,INVALID,163.746,VALID,0,VALID,24.2273,VALID,343,VALID,0.495703,
2011-04-30, 02:02:04,VALID,1002.3,VALID,0,INVALID,163.739,VALID,0,VALID,24.2078,VALID,343,VALID,0.34375,
2011-04-30, 02:03:04,VALID,1002.3,VALID,0,INVALID,163.731,VALID,0,VALID,24.1671,VALID,343,VALID,0.456641,
2011-04-30, 02:04:04,VALID,1002.28,VALID,0,INVALID,163.754,VALID,0,VALID,24.2291,VALID,343,VALID,0.339453,
2011-04-30, 02:05:04,VALID,1002.28,VALID,0,INVALID,163.716,VALID,0,VALID,24.2078,VALID,343,VALID,0.45,
2011-04-30, 02:06:04,VALID,1002.3,VALID,0,INVALID,163.701,VALID,0.100563,VALID,24.2255,VALID,344,VALID,0.488672,
2011-04-30, 02:07:04,VALID,1002.31,VALID,0,INVALID,163.746,VALID,0,VALID,24.307,VALID,16,VALID,0.613672,
2011-04-30, 02:08:04,VALID,1002.32,VALID,0,INVALID,163.716,VALID,0,VALID,24.3052,VALID,16,VALID,0.205078,
2011-04-30, 02:09:04,VALID,1002.34,VALID,0,INVALID,163.716,VALID,0,VALID,24.3052,VALID,16,VALID,0.0160156,
2011-04-30, 02:10:04,VALID,1002.32,VALID,0,INVALID,163.723,VALID,0.100563,VALID,24.3246,VALID,16,VALID,0.185156,
2011-04-30, 02:11:04,VALID,1002.31,VALID,0,INVALID,163.723,VALID,0.100563,VALID,24.3441,VALID,15,VALID,0.00195313,
2011-04-30, 02:12:04,VALID,1002.3,VALID,0,INVALID,163.701,VALID,0,VALID,24.3636,VALID,15,VALID,0.1625,
2011-04-30, 02:13:04,VALID,1002.3,VALID,0,INVALID,163.731,VALID,0,VALID,24.3617,VALID,15,VALID,0.00625,
2011-04-30, 02:14:04,VALID,1002.3,VALID,0,INVALID,163.708,VALID,0.100563,VALID,24.383,VALID,14,VALID,0.435937,
2011-04-30, 02:15:04,VALID,1002.3,VALID,0,INVALID,163.739,VALID,0,VALID,24.4025,VALID,12,VALID,0.339453,
2011-04-30, 02:16:04,VALID,1002.31,VALID,0,INVALID,163.723,VALID,0,VALID,24.383,VALID,12,VALID,0.346094,
2011-04-30, 02:17:04,VALID,1002.31,VALID,0,INVALID,163.708,VALID,0,VALID,24.383,VALID,12,VALID,0.259766,
2011-04-30, 02:18:04,VALID,1002.3,VALID,0,INVALID,163.701,VALID,0,VALID,24.383,VALID,12,VALID,0.346484,
2011-04-30, 02:19:04,VALID,1002.29,VALID,0,INVALID,163.693,VALID,0,VALID,24.4025,VALID,12,VALID,0.123438,
2011-04-30, 02:20:04,VALID,1002.31,VALID,0,INVALID,163.731,VALID,0.100563,VALID,24.4043,VALID,12,VALID,0.295312,
2011-04-30, 02:21:04,VALID,1002.31,VALID,0,INVALID,163.731,VALID,0,VALID,24.3636,VALID,12,VALID,0,
2011-04-30, 02:22:04,VALID,1002.34,VALID,0,INVALID,163.723,VALID,0,VALID,24.3441,VALID,12,VALID,0.00390625,
2011-04-30, 02:23:04,VALID,1002.34,VALID,0,INVALID,163.716,VALID,0.100563,VALID,24.3441,VALID,12,VALID,0.289453,
2011-04-30, 02:24:04,VALID,1002.31,VALID,0,INVALID,163.723,VALID,0,VALID,24.3246,VALID,12,VALID,0.351563,
2011-04-30, 02:25:04,VALID,1002.33,VALID,0,INVALID,163.739,VALID,0,VALID,24.3654,VALID,12,VALID,0.191797,
2011-04-30, 02:26:04,VALID,1002.35,VALID,0,INVALID,163.731,VALID,0,VALID,24.3246,VALID,12,VALID,0.400391,
2011-04-30, 02:27:04,VALID,1002.35,VALID,0,INVALID,163.731,VALID,0,VALID,24.3636,VALID,354,VALID,0.573828,
2011-04-30, 02:28:04,VALID,1002.33,VALID,0,INVALID,163.731,VALID,0,VALID,24.3636,VALID,352,VALID,0.534766,
2011-04-30, 02:29:04,VALID,1002.32,VALID,0,INVALID,163.716,VALID,0,VALID,24.3636,VALID,354,VALID,0.582422,
2011-04-30, 02:30:04,VALID,1002.34,VALID,0,INVALID,163.723,VALID,0.100563,VALID,24.3422,VALID,360,VALID,0.423438,
2011-04-30, 02:31:04,VALID,1002.33,VALID,0,INVALID,163.716,VALID,0,VALID,24.383,VALID,354,VALID,0.839844,
2011-04-30, 02:32:04,VALID,1002.34,VALID,0,INVALID,163.731,VALID,0,VALID,24.383,VALID,334,VALID,0.652734,
2011-04-30, 02:33:04,VALID,1002.33,VALID,0,INVALID,163.716,VALID,0,VALID,24.4043,VALID,345,VALID,0.565625,
2011-04-30, 02:34:04,VALID,1002.31,VALID,0,INVALID,163.693,VALID,0,VALID,24.4043,VALID,344,VALID,0.668359,
2011-04-30, 02:35:04,VALID,1002.31,VALID,0,INVALID,163.731,VALID,0,VALID,24.383,VALID,352,VALID,0.694922,
2011-04-30, 02:36:04,VALID,1002.31,VALID,0,INVALID,163.716,VALID,0,VALID,24.4025,VALID,347,VALID,0.608984,
2011-04-30, 02:37:04,VALID,1002.29,VALID,0,INVALID,163.723,VALID,0,VALID,24.4025,VALID,347,VALID,0.516406,
2011-04-30, 02:38:04,VALID,1002.3,VALID,0,INVALID,163.723,VALID,0,VALID,24.383,VALID,346,VALID,0.375781,
2011-04-30, 02:39:04,VALID,1002.28,VALID,0,INVALID,163.723,VALID,0,VALID,24.3636,VALID,346,VALID,0.461328,
2011-04-30, 02:40:04,VALID,1002.23,VALID,0,INVALID,163.731,VALID,0,VALID,24.3636,VALID,346,VALID,0.281641,
2011-04-30, 02:41:04,VALID,1002.24,VALID,0,INVALID,163.693,VALID,0,VALID,24.3246,VALID,346,VALID,0.3875,
2011-04-30, 02:42:04,VALID,1002.24,VALID,0,INVALID,163.716,VALID,0,VALID,24.3265,VALID,346,VALID,0.304688,
2011-04-30, 02:43:04,VALID,1002.25,VALID,0,INVALID,163.716,VALID,0,VALID,24.2662,VALID,347,VALID,0.507031,
2011-04-30, 02:44:04,VALID,1002.23,VALID,0,INVALID,163.731,VALID,0.100563,VALID,24.2273,VALID,347,VALID,0.441016,
2011-04-30, 02:45:04,VALID,1002.23,VALID,0,INVALID,163.731,VALID,0.100563,VALID,24.2078,VALID,347,VALID,0.335938,
2011-04-30, 02:46:04,VALID,1002.24,VALID,0,INVALID,163.731,VALID,0,VALID,24.1689,VALID,347,VALID,0.283594,
2011-04-30, 02:47:04,VALID,1002.2,VALID,0,INVALID,163.731,VALID,0,VALID,24.1707,VALID,347,VALID,0.238281,
2011-04-30, 02:48:04,VALID,1002.21,VALID,0,INVALID,163.739,VALID,0,VALID,24.1494,VALID,347,VALID,0.233594,
2011-04-30, 02:49:04,VALID,1002.19,VALID,0,INVALID,163.731,VALID,0,VALID,24.13,VALID,347,VALID,0.282813,
2011-04-30, 02:50:04,VALID,1002.18,VALID,0,INVALID,163.731,VALID,0,VALID,24.1494,VALID,347,VALID,0.355469,
2011-04-30, 02:51:04,VALID,1002.15,VALID,0,INVALID,163.754,VALID,0,VALID,24.1494,VALID,347,VALID,0.402734,
2011-04-30, 02:52:04,VALID,1002.13,VALID,0,INVALID,163.716,VALID,0,VALID,24.13,VALID,347,VALID,0.490625,
2011-04-30, 02:53:04,VALID,1002.12,VALID,0,INVALID,163.754,VALID,0,VALID,24.1707,VALID,347,VALID,0.552734,
2011-04-30, 02:54:04,VALID,1002.1,VALID,0,INVALID,163.762,VALID,0,VALID,24.1494,VALID,347,VALID,0.448828,
2011-04-30, 02:55:04,VALID,1002.1,VALID,0,INVALID,163.723,VALID,0,VALID,24.1494,VALID,347,VALID,0.443359,
2011-04-30, 02:56:04,VALID,1002.11,VALID,0,INVALID,163.723,VALID,0.100563,VALID,24.1689,VALID,347,VALID,0.329297,
2011-04-30, 02:57:04,VALID,1002.07,VALID,0,INVALID,163.754,VALID,0,VALID,24.1707,VALID,347,VALID,0.389844,
2011-04-30, 02:58:04,VALID,1002.06,VALID,0,INVALID,163.754,VALID,0.100563,VALID,24.1087,VALID,347,VALID,0.403516,
2011-04-30, 02:59:04,VALID,1002.06,VALID,0,INVALID,163.716,VALID,0,VALID,24.13,VALID,347,VALID,0.380859,
2011-04-30, 03:00:04,VALID,1002.05,VALID,0,INVALID,163.723,VALID,0,VALID,24.1513,VALID,347,VALID,0.287891,
2011-04-30, 03:01:04,VALID,1001.99,VALID,0,INVALID,163.723,VALID,0,VALID,24.13,VALID,347,VALID,0.269531,
2011-04-30, 03:02:04,VALID,1002.01,VALID,0,INVALID,163.754,VALID,0,VALID,24.1087,VALID,347,VALID,0.317187,
2011-04-30, 03:03:04,VALID,1001.98,VALID,0,INVALID,163.746,VALID,0,VALID,24.13,VALID,347,VALID,0.357422,
2011-04-30, 03:04:04,VALID,1001.98,VALID,0,INVALID,163.746,VALID,0,VALID,24.1513,VALID,347,VALID,0.30625,
2011-04-30, 03:05:04,VALID,1001.94,VALID,0,INVALID,163.739,VALID,0,VALID,24.1494,VALID,347,VALID,0.423438,
2011-04-30, 03:06:04,VALID,1001.94,VALID,0,INVALID,163.754,VALID,0.100563,VALID,24.1902,VALID,347,VALID,0.414453,
2011-04-30, 03:07:04,VALID,1001.95,VALID,0,INVALID,163.754,VALID,0,VALID,24.1494,VALID,347,VALID,0.348437,
2011-04-30, 03:08:04,VALID,1001.95,VALID,0,INVALID,163.739,VALID,0.100563,VALID,24.1689,VALID,347,VALID,0.456641,
2011-04-30, 03:09:04,VALID,1001.96,VALID,0,INVALID,163.723,VALID,0,VALID,24.1689,VALID,347,VALID,0.238281,
2011-04-30, 03:10:04,VALID,1001.95,VALID,0,INVALID,163.769,VALID,0,VALID,24.1884,VALID,347,VALID,0.0367187,
2011-04-30, 03:11:04,VALID,1001.97,VALID,0,INVALID,163.739,VALID,0,VALID,24.1689,VALID,347,VALID,0,
2011-04-30, 03:12:04,VALID,1001.96,VALID,0,INVALID,163.716,VALID,0,VALID,24.1689,VALID,347,VALID,0,
2011-04-30, 03:13:04,VALID,1001.98,VALID,0,INVALID,163.731,VALID,0,VALID,24.1707,VALID,347,VALID,0.00078125,
2011-04-30, 03:14:04,VALID,1001.96,VALID,0,INVALID,163.731,VALID,0,VALID,24.1494,VALID,347,VALID,0,
2011-04-30, 03:15:04,VALID,1001.96,VALID,0,INVALID,163.723,VALID,0,VALID,24.1494,VALID,347,VALID,0,
2011-04-30, 03:16:04,VALID,1001.93,VALID,0,INVALID,163.716,VALID,0,VALID,24.1884,VALID,347,VALID,0.138672,
2011-04-30, 03:17:04,VALID,1001.95,VALID,0,INVALID,163.716,VALID,0.100563,VALID,24.2078,VALID,347,VALID,0.228125,
2011-04-30, 03:18:04,VALID,1001.92,VALID,0,INVALID,163.731,VALID,0,VALID,24.2273,VALID,347,VALID,0,
2011-04-30, 03:19:04,VALID,1001.94,VALID,0,INVALID,163.746,VALID,0,VALID,24.2468,VALID,347,VALID,0,
2011-04-30, 03:20:04,VALID,1001.94,VALID,0,INVALID,163.731,VALID,0.100563,VALID,24.2273,VALID,347,VALID,0,
2011-04-30, 03:21:04,VALID,1001.92,VALID,0,INVALID,163.723,VALID,0,VALID,24.2078,VALID,347,VALID,0,
2011-04-30, 03:22:04,VALID,1001.92,VALID,0,INVALID,163.716,VALID,0.100563,VALID,24.1865,VALID,347,VALID,0,
2011-04-30, 03:23:04,VALID,1001.89,VALID,0,INVALID,163.723,VALID,0,VALID,24.2273,VALID,347,VALID,0,
2011-04-30, 03:24:04,VALID,1001.92,VALID,0,INVALID,163.716,VALID,0,VALID,24.2078,VALID,347,VALID,0,
2011-04-30, 03:25:04,VALID,1001.92,VALID,0,INVALID,163.708,VALID,0,VALID,24.2273,VALID,347,VALID,0.407031,
2011-04-30, 03:26:04,VALID,1001.91,VALID,0,INVALID,163.716,VALID,0,VALID,24.206,VALID,347,VALID,0.104297,
2011-04-30, 03:27:04,VALID,1001.9,VALID,0,INVALID,163.731,VALID,0.100563,VALID,24.2681,VALID,347,VALID,0,
2011-04-30, 03:28:04,VALID,1001.88,VALID,0,INVALID,163.716,VALID,0,VALID,24.206,VALID,347,VALID,0,
2011-04-30, 03:29:04,VALID,1001.88,VALID,0,INVALID,163.723,VALID,0.100563,VALID,24.2662,VALID,347,VALID,0,
2011-04-30, 03:30:04,VALID,1001.89,VALID,0,INVALID,163.716,VALID,0,VALID,24.307,VALID,347,VALID,0,
2011-04-30, 03:31:04,VALID,1001.91,VALID,0,INVALID,163.716,VALID,0.100563,VALID,24.2449,VALID,347,VALID,0,
2011-04-30, 03:32:04,VALID,1001.88,VALID,0,INVALID,163.754,VALID,0,VALID,24.2468,VALID,347,VALID,0,
2011-04-30, 03:33:04,VALID,1001.9,VALID,0,INVALID,163.731,VALID,0,VALID,24.2662,VALID,347,VALID,0,
2011-04-30, 03:34:04,VALID,1001.9,VALID,0,INVALID,163.701,VALID,0,VALID,24.2273,VALID,347,VALID,0,
2011-04-30, 03:35:04,VALID,1001.93,VALID,0,INVALID,163.731,VALID,0,VALID,24.2273,VALID,347,VALID,0,
2011-04-30, 03:36:04,VALID,1001.92,VALID,0,INVALID,163.723,VALID,0,VALID,24.2468,VALID,347,VALID,0,
2011-04-30, 03:37:04,VALID,1001.91,VALID,0,INVALID,163.708,VALID,0,VALID,24.2468,VALID,347,VALID,0,
2011-04-30, 03:38:04,VALID,1001.9,VALID,0,INVALID,163.739,VALID,0,VALID,24.2273,VALID,347,VALID,0.360547,
2011-04-30, 03:39:04,VALID,1001.91,VALID,0,INVALID,163.754,VALID,0,VALID,24.1865,VALID,347,VALID,0.298828,
2011-04-30, 03:40:04,VALID,1001.89,VALID,0,INVALID,163.723,VALID,0.100563,VALID,24.2468,VALID,347,VALID,0.410937,
2011-04-30, 03:41:04,VALID,1001.91,VALID,0,INVALID,163.746,VALID,0,VALID,24.2662,VALID,347,VALID,0.505859,